This demonstration page uses our WeatherBlox Daily Observations layout. Learn more.

Left ArrowRight Arrow

39.08367, -84.50855

Hourly Observations for May 31, 2020

Temp ( °F °C ) Dew Point ( °F °C ) Humidity (%) Winds ( mph kmh ) Pressure ( in mb ) Visibility ( mi km ) Precip ( " mm )
12:53 am 00:53 Clear 55 12.8 53 11.7 93 93 Calm 30.18 1022 10 16.0934 0 0
1:53 am 01:53 Clear 53 11.7 52 11.1 96 96 Calm 30.18 1022 10 16.0934 0 0
2:53 am 02:53 Mostly Clear 53 11.7 51 10.6 93 93 Calm 30.19 1022 10 16.0934 0 0
3:53 am 03:53 Clear 52 11.1 49 9.4 89 89 Calm 30.19 1023 10 16.0934 0 0
4:53 am 04:53 Clear 51 10.6 48 8.9 89 89 Calm 30.21 1023 10 16.0934 0 0
5:53 am 05:53 Clear 49 9.4 48 8.9 97 97 Calm 30.23 1024 10 16.0934 0 0
6:53 am 06:53 Sunny 50 10 49 9.4 96 96 Calm 30.26 1025 10 16.0934 0 0
7:53 am 07:53 Sunny 56 13.3 51 10.6 84 84 ENE 3 6 30.28 1025 10 16.0934 0 0
8:53 am 08:53 Sunny 60 15.6 46 7.8 60 60 NNE 14 22 30.29 1026 10 16.0934 0 0
9:53 am 09:53 Sunny 63 17.2 47 8.3 56 56 NE 13 20 30.31 1026 10 16.0934 0 0
10:53 am 10:53 Sunny 66 18.9 46 7.8 49 49 NE 12 19 30.3 1026 10 16.0934 0 0
11:53 am 11:53 Sunny 67 19.4 43 6.1 42 42 NE 14 22 30.29 1026 10 16.0934 0 0
12:53 pm 12:53 Sunny 69 20.6 42 5.6 38 38 N 12 19 30.29 1026 10 16.0934 0 0
1:53 pm 13:53 Sunny 71 21.7 41 5 34 34 N 10 17 30.29 1026 10 16.0934 0 0
2:53 pm 14:53 Sunny 70 21.1 41 5 35 35 N 8 13 30.27 1025 10 16.0934 0 0
3:53 pm 15:53 Sunny 72 22.2 42 5.6 34 34 NNE 8 13 30.26 1025 10 16.0934 0 0
4:53 pm 16:53 Sunny 71 21.7 42 5.6 35 35 N 9 15 30.25 1025 10 16.0934 0 0
5:53 pm 17:53 Sunny 71 21.7 41 5 34 34 VRB 3 6 30.24 1024 10 16.0934 0 0
6:53 pm 18:53 Sunny 70 21.1 40 4.4 34 34 N 12 19 30.24 1024 10 16.0934 0 0
7:53 pm 19:53 Sunny 68 20 41 5 38 38 N 9 15 30.25 1024 10 16.0934 0 0
8:53 pm 20:53 Sunny 64 17.8 41 5 43 43 NNE 3 6 30.25 1024 10 16.0934 0 0
9:53 pm 21:53 Clear 58 14.4 47 8.3 67 67 Calm 30.27 1025 10 16.0934 0 0
10:53 pm 22:53 Clear 55 12.8 47 8.3 74 74 Calm 30.29 1026 10 16.0934 0 0
11:53 pm 23:53 Clear 54 12.2 48 8.9 80 80 Calm 30.29 1026 10 16.0934 0 0

Powered by AerisWeather